Time,TemperatureF,DewpointF,PressureIn,WindDirection,WindDirectionDegrees,WindSpeedMPH,WindSpeedGustMPH,Humidity,HourlyPrecipIn,Conditions,Clouds,dailyrainin,SolarRadiationWatts/m^2,SoftwareType,DateUTC
2013-06-12 00:03:00,76.0,72.0,-100.00,SW,226,2.0,5.0,88,0.00,,,0.00,0.000000,,2013-06-12 05:03:00,
2013-06-12 00:32:00,76.0,72.0,-100.00,SW,215,2.0,5.0,88,0.00,,,0.00,0.000000,,2013-06-12 05:32:00,
2013-06-12 00:42:00,76.0,72.0,-100.00,SW,215,2.0,5.0,88,0.00,,,0.00,0.000000,,2013-06-12 05:42:00,
2013-06-12 00:52:00,76.0,72.0,-100.00,SW,215,2.0,5.0,88,0.00,,,0.00,0.000000,,2013-06-12 05:52:00,
2013-06-12 01:02:00,76.0,72.0,-100.00,SW,215,2.0,5.0,88,0.00,,,0.00,0.000000,,2013-06-12 06:02:00,
2013-06-12 01:32:00,76.0,73.0,-100.00,SW,221,3.0,7.0,89,0.00,,,0.00,0.000000,,2013-06-12 06:32:00,
2013-06-12 01:42:00,76.0,73.0,-100.00,SW,221,3.0,7.0,89,0.00,,,0.00,0.000000,,2013-06-12 06:42:00,
2013-06-12 01:52:00,76.0,73.0,-100.00,SW,221,3.0,7.0,89,0.00,,,0.00,0.000000,,2013-06-12 06:52:00,
2013-06-12 02:02:00,76.0,73.0,-100.00,SW,221,3.0,7.0,89,0.00,,,0.00,0.000000,,2013-06-12 07:02:00,
2013-06-12 02:33:00,75.0,72.0,-100.00,SW,225,3.0,7.0,91,0.00,,,0.00,0.000000,,2013-06-12 07:33:00,
2013-06-12 02:43:00,75.0,72.0,-100.00,SW,225,3.0,7.0,91,0.00,,,0.00,0.000000,,2013-06-12 07:43:00,
2013-06-12 02:53:00,75.0,72.0,-100.00,SW,225,3.0,7.0,91,0.00,,,0.00,0.000000,,2013-06-12 07:53:00,
2013-06-12 03:02:00,75.0,72.0,-100.00,SW,225,3.0,7.0,91,0.00,,,0.00,0.000000,,2013-06-12 08:02:00,
2013-06-12 03:33:00,75.0,73.0,-100.00,SW,221,1.0,7.0,92,0.00,,,0.00,0.000000,,2013-06-12 08:33:00,
2013-06-12 03:43:00,75.0,73.0,-100.00,SW,221,1.0,7.0,92,0.00,,,0.00,0.000000,,2013-06-12 08:43:00,
2013-06-12 03:53:00,75.0,73.0,-100.00,SW,221,1.0,7.0,92,0.00,,,0.00,0.000000,,2013-06-12 08:53:00,
2013-06-12 04:01:00,75.0,73.0,-100.00,SW,221,1.0,7.0,92,0.00,,,0.00,0.000000,,2013-06-12 09:01:00,
2013-06-12 04:33:00,74.0,72.0,-100.00,SW,227,1.0,5.0,93,0.00,,,0.00,0.000000,,2013-06-12 09:33:00,
2013-06-12 04:43:00,74.0,72.0,-100.00,SW,227,1.0,5.0,93,0.00,,,0.00,0.000000,,2013-06-12 09:43:00,
2013-06-12 04:53:00,74.0,72.0,-100.00,SW,227,1.0,5.0,93,0.00,,,0.00,0.000000,,2013-06-12 09:53:00,
2013-06-12 05:02:00,74.0,72.0,-100.00,SW,227,1.0,5.0,93,0.00,,,0.00,0.000000,,2013-06-12 10:02:00,
2013-06-12 05:33:00,74.0,72.0,-100.00,SW,222,2.0,5.0,94,0.00,,,0.00,0.000000,,2013-06-12 10:33:00,
2013-06-12 05:43:00,74.0,72.0,-100.00,SW,222,2.0,5.0,94,0.00,,,0.00,0.000000,,2013-06-12 10:43:00,
2013-06-12 05:53:00,74.0,72.0,-100.00,SW,222,2.0,5.0,94,0.00,,,0.00,0.000000,,2013-06-12 10:53:00,
2013-06-12 06:02:00,74.0,72.0,-100.00,SW,222,2.0,5.0,94,0.00,,,0.00,0.000000,,2013-06-12 11:02:00,
2013-06-12 06:33:00,74.0,72.0,-100.00,SW,223,1.0,6.0,94,0.00,,,0.00,2.000000,,2013-06-12 11:33:00,
2013-06-12 06:43:00,74.0,72.0,-100.00,SW,223,1.0,6.0,94,0.00,,,0.00,2.000000,,2013-06-12 11:43:00,
2013-06-12 06:53:00,74.0,72.0,-100.00,SW,223,1.0,6.0,94,0.00,,,0.00,2.000000,,2013-06-12 11:53:00,
2013-06-12 07:02:00,74.0,72.0,-100.00,SW,223,1.0,6.0,94,0.00,,,0.00,2.000000,,2013-06-12 12:02:00,
2013-06-12 07:33:00,77.0,74.0,-100.00,SW,230,1.0,5.0,92,0.00,,,0.00,59.000000,,2013-06-12 12:33:00,
2013-06-12 07:43:00,77.0,74.0,-100.00,SW,230,1.0,5.0,92,0.00,,,0.00,59.000000,,2013-06-12 12:43:00,
2013-06-12 07:53:00,77.0,74.0,-100.00,SW,230,1.0,5.0,92,0.00,,,0.00,59.000000,,2013-06-12 12:53:00,
2013-06-12 08:01:00,77.0,74.0,-100.00,SW,230,1.0,5.0,92,0.00,,,0.00,59.000000,,2013-06-12 13:01:00,
2013-06-12 08:33:00,82.0,76.0,-100.00,SW,233,2.0,7.0,83,0.00,,,0.00,205.000000,,2013-06-12 13:33:00,
2013-06-12 08:43:00,82.0,76.0,-100.00,SW,233,2.0,7.0,83,0.00,,,0.00,205.000000,,2013-06-12 13:43:00,
2013-06-12 08:53:00,82.0,76.0,-100.00,SW,233,2.0,7.0,83,0.00,,,0.00,205.000000,,2013-06-12 13:53:00,
2013-06-12 09:02:00,82.0,76.0,-100.00,SW,233,2.0,7.0,83,0.00,,,0.00,205.000000,,2013-06-12 14:02:00,
2013-06-12 09:33:00,85.0,75.0,-100.00,WSW,247,3.0,8.0,73,0.00,,,0.00,371.000000,,2013-06-12 14:33:00,
2013-06-12 09:43:00,85.0,75.0,-100.00,WSW,247,3.0,8.0,73,0.00,,,0.00,371.000000,,2013-06-12 14:43:00,
2013-06-12 09:53:00,85.0,75.0,-100.00,WSW,247,3.0,8.0,73,0.00,,,0.00,371.000000,,2013-06-12 14:53:00,
2013-06-12 10:01:00,85.0,75.0,-100.00,WSW,247,3.0,8.0,73,0.00,,,0.00,371.000000,,2013-06-12 15:01:00,
2013-06-12 10:33:00,88.0,74.0,-100.00,West,278,3.0,8.0,63,0.00,,,0.00,524.000000,,2013-06-12 15:33:00,
2013-06-12 10:43:00,88.0,74.0,-100.00,West,278,3.0,8.0,63,0.00,,,0.00,524.000000,,2013-06-12 15:43:00,
2013-06-12 10:52:00,88.0,74.0,-100.00,West,278,3.0,8.0,63,0.00,,,0.00,524.000000,,2013-06-12 15:52:00,
2013-06-12 11:01:00,88.0,74.0,-100.00,West,278,3.0,8.0,63,0.00,,,0.00,524.000000,,2013-06-12 16:01:00,
2013-06-12 11:43:00,91.0,75.0,-100.00,SSW,201,3.0,8.0,60,0.00,,,0.00,645.000000,,2013-06-12 16:43:00,
2013-06-12 11:53:00,91.0,75.0,-100.00,SSW,201,3.0,8.0,60,0.00,,,0.00,645.000000,,2013-06-12 16:53:00,
2013-06-12 12:01:00,91.0,75.0,-100.00,SSW,201,3.0,8.0,60,0.00,,,0.00,645.000000,,2013-06-12 17:01:00,
2013-06-12 12:33:00,91.0,72.0,-100.00,SW,220,2.0,7.0,54,0.00,,,0.00,710.000000,,2013-06-12 17:33:00,
2013-06-12 12:42:00,91.0,72.0,-100.00,SW,220,2.0,7.0,54,0.00,,,0.00,710.000000,,2013-06-12 17:42:00,
2013-06-12 12:52:00,91.0,72.0,-100.00,SW,220,2.0,7.0,54,0.00,,,0.00,710.000000,,2013-06-12 17:52:00,
2013-06-12 13:02:00,91.0,72.0,-100.00,SW,220,2.0,7.0,54,0.00,,,0.00,710.000000,,2013-06-12 18:02:00,
2013-06-12 13:33:00,93.0,72.0,-100.00,SW,219,3.0,7.0,50,0.00,,,0.00,728.000000,,2013-06-12 18:33:00,
2013-06-12 13:43:00,93.0,72.0,-100.00,SW,219,3.0,7.0,50,0.00,,,0.00,728.000000,,2013-06-12 18:43:00,
2013-06-12 13:53:00,93.0,72.0,-100.00,SW,219,3.0,7.0,50,0.00,,,0.00,728.000000,,2013-06-12 18:53:00,
2013-06-12 14:01:00,93.0,72.0,-100.00,SW,219,3.0,7.0,50,0.00,,,0.00,728.000000,,2013-06-12 19:01:00,
2013-06-12 14:33:00,92.0,72.0,-100.00,SSW,198,2.0,7.0,53,0.00,,,0.00,529.000000,,2013-06-12 19:33:00,
2013-06-12 14:43:00,92.0,72.0,-100.00,SSW,198,2.0,7.0,53,0.00,,,0.00,529.000000,,2013-06-12 19:43:00,
2013-06-12 14:52:00,92.0,72.0,-100.00,SSW,198,2.0,7.0,53,0.00,,,0.00,529.000000,,2013-06-12 19:52:00,
2013-06-12 15:01:00,92.0,72.0,-100.00,SSW,198,2.0,7.0,53,0.00,,,0.00,529.000000,,2013-06-12 20:01:00,
2013-06-12 15:33:00,93.0,71.0,-100.00,West,270,2.0,9.0,49,0.00,,,0.00,666.000000,,2013-06-12 20:33:00,
2013-06-12 15:43:00,93.0,71.0,-100.00,West,270,2.0,9.0,49,0.00,,,0.00,666.000000,,2013-06-12 20:43:00,
2013-06-12 15:54:00,93.0,71.0,-100.00,West,270,2.0,9.0,49,0.00,,,0.00,666.000000,,2013-06-12 20:54:00,
2013-06-12 16:01:00,93.0,71.0,-100.00,West,270,2.0,9.0,49,0.00,,,0.00,666.000000,,2013-06-12 21:01:00,
2013-06-12 16:33:00,95.0,72.0,-100.00,South,187,3.0,7.0,48,0.00,,,0.00,642.000000,,2013-06-12 21:33:00,
2013-06-12 16:43:00,95.0,72.0,-100.00,South,187,3.0,7.0,48,0.00,,,0.00,642.000000,,2013-06-12 21:43:00,
2013-06-12 16:53:00,95.0,72.0,-100.00,South,187,3.0,7.0,48,0.00,,,0.00,642.000000,,2013-06-12 21:53:00,
2013-06-12 17:01:00,95.0,72.0,-100.00,South,187,3.0,7.0,48,0.00,,,0.00,642.000000,,2013-06-12 22:01:00,
2013-06-12 17:33:00,94.0,69.0,-100.00,SW,221,2.0,9.0,45,0.00,,,-99.99,406.000000,,2013-06-12 22:33:00,
2013-06-12 17:43:00,94.0,69.0,-100.00,SW,221,2.0,9.0,45,0.00,,,-99.99,406.000000,,2013-06-12 22:43:00,
2013-06-12 17:52:00,94.0,69.0,-100.00,SW,221,2.0,9.0,45,0.00,,,-99.99,406.000000,,2013-06-12 22:52:00,
2013-06-12 18:02:00,94.0,69.0,-100.00,SW,221,2.0,9.0,45,0.00,,,-99.99,406.000000,,2013-06-12 23:02:00,
2013-06-12 18:32:00,92.0,71.0,-100.00,SSW,204,1.0,7.0,51,0.00,,,0.00,251.000000,,2013-06-12 23:32:00,
2013-06-12 18:42:00,92.0,71.0,-100.00,SSW,204,1.0,7.0,51,0.00,,,0.00,251.000000,,2013-06-12 23:42:00,
2013-06-12 18:53:00,92.0,71.0,-100.00,SSW,204,1.0,7.0,51,0.00,,,0.00,251.000000,,2013-06-12 23:53:00,
2013-06-12 19:01:00,92.0,71.0,-100.00,SSW,204,1.0,7.0,51,0.00,,,0.00,251.000000,,2013-06-13 00:01:00,
2013-06-12 19:33:00,87.0,71.0,-100.00,SSW,209,0.0,5.0,60,0.00,,,0.00,147.000000,,2013-06-13 00:33:00,
2013-06-12 19:43:00,87.0,71.0,-100.00,SSW,209,0.0,5.0,60,0.00,,,0.00,147.000000,,2013-06-13 00:43:00,
2013-06-12 19:52:00,87.0,71.0,-100.00,SSW,209,0.0,5.0,60,0.00,,,0.00,147.000000,,2013-06-13 00:52:00,
2013-06-12 20:01:00,87.0,71.0,-100.00,SSW,209,0.0,5.0,60,0.00,,,0.00,147.000000,,2013-06-13 01:01:00,
2013-06-12 20:33:00,82.0,72.0,-100.00,SSW,200,0.0,2.0,72,0.00,,,0.00,17.000000,,2013-06-13 01:33:00,
2013-06-12 20:43:00,82.0,72.0,-100.00,SSW,200,0.0,2.0,72,0.00,,,0.00,17.000000,,2013-06-13 01:43:00,
2013-06-12 20:53:00,82.0,72.0,-100.00,SSW,200,0.0,2.0,72,0.00,,,0.00,17.000000,,2013-06-13 01:53:00,
2013-06-12 21:02:00,82.0,72.0,-100.00,SSW,200,0.0,2.0,72,0.00,,,0.00,17.000000,,2013-06-13 02:02:00,
2013-06-12 21:33:00,78.0,71.0,-100.00,SSW,204,1.0,3.0,78,0.00,,,0.00,1.000000,,2013-06-13 02:33:00,
2013-06-12 21:43:00,78.0,71.0,-100.00,SSW,204,1.0,3.0,78,0.00,,,0.00,1.000000,,2013-06-13 02:43:00,
2013-06-12 21:52:00,78.0,71.0,-100.00,SSW,204,1.0,3.0,78,0.00,,,0.00,1.000000,,2013-06-13 02:52:00,
2013-06-12 22:02:00,78.0,71.0,-100.00,SSW,204,1.0,3.0,78,0.00,,,0.00,1.000000,,2013-06-13 03:02:00,
2013-06-12 22:33:00,77.0,70.0,-100.00,SW,225,0.0,2.0,80,0.00,,,-99.99,0.000000,,2013-06-13 03:33:00,
2013-06-12 22:43:00,77.0,70.0,-100.00,SW,225,0.0,2.0,80,0.00,,,-99.99,0.000000,,2013-06-13 03:43:00,
2013-06-12 22:52:00,77.0,70.0,-100.00,SW,225,0.0,2.0,80,0.00,,,-99.99,0.000000,,2013-06-13 03:52:00,
2013-06-12 23:01:00,77.0,70.0,-100.00,SW,225,0.0,2.0,80,0.00,,,-99.99,0.000000,,2013-06-13 04:01:00,
2013-06-12 23:33:00,76.0,70.0,-100.00,SW,215,1.0,5.0,81,0.00,,,0.00,0.000000,,2013-06-13 04:33:00,
2013-06-12 23:43:00,76.0,70.0,-100.00,SW,215,1.0,5.0,81,0.00,,,0.00,0.000000,,2013-06-13 04:43:00,
2013-06-12 23:53:00,76.0,70.0,-100.00,SW,215,1.0,5.0,81,0.00,,,0.00,0.000000,,2013-06-13 04:53:00,